Year,Month,Day,Hour,Minute,Value (Times are PST for temperature in C)
2016,08,24,00,00,11.30
2016,08,24,00,01,11.30
2016,08,24,00,02,11.30
2016,08,24,00,03,11.30
2016,08,24,00,04,11.30
2016,08,24,00,05,11.30
2016,08,24,00,06,11.30
2016,08,24,00,07,11.30
2016,08,24,00,08,11.30
2016,08,24,00,09,11.30
2016,08,24,00,10,11.30
2016,08,24,00,11,11.30
2016,08,24,00,12,11.30
2016,08,24,00,13,11.30
2016,08,24,00,14,11.30
2016,08,24,00,15,11.30
2016,08,24,00,16,11.30
2016,08,24,00,17,11.40
2016,08,24,00,18,11.40
2016,08,24,00,19,11.40
2016,08,24,00,20,11.50
2016,08,24,00,21,11.60
2016,08,24,00,22,11.60
2016,08,24,00,23,11.70
2016,08,24,00,24,11.70
2016,08,24,00,25,11.70
2016,08,24,00,26,11.60
2016,08,24,00,27,11.60
2016,08,24,00,28,11.60
2016,08,24,00,29,11.60
2016,08,24,00,30,11.60
2016,08,24,00,31,11.50
2016,08,24,00,32,11.50
2016,08,24,00,33,11.40
2016,08,24,00,34,11.40
2016,08,24,00,35,11.40
2016,08,24,00,36,11.30
2016,08,24,00,37,11.30
2016,08,24,00,38,11.30
2016,08,24,00,39,11.20
2016,08,24,00,40,11.20
2016,08,24,00,41,11.20
2016,08,24,00,42,11.20
2016,08,24,00,43,11.20
2016,08,24,00,44,11.10
2016,08,24,00,45,11.10
2016,08,24,00,46,11.10
2016,08,24,00,47,11.10
2016,08,24,00,48,11.10
2016,08,24,00,49,11.10
2016,08,24,00,50,11.10
2016,08,24,00,51,11.10
2016,08,24,00,52,11.10
2016,08,24,00,53,11.10
2016,08,24,00,54,11.00
2016,08,24,00,55,11.00
2016,08,24,00,56,11.00
2016,08,24,00,57,10.90
2016,08,24,00,58,10.90
2016,08,24,00,59,10.90
2016,08,24,01,00,10.90
2016,08,24,01,01,10.90
2016,08,24,01,02,10.80
2016,08,24,01,03,10.80
2016,08,24,01,04,10.80
2016,08,24,01,05,10.80
2016,08,24,01,06,10.80
2016,08,24,01,07,10.80
2016,08,24,01,08,10.80
2016,08,24,01,09,10.90
2016,08,24,01,10,10.90
2016,08,24,01,11,10.90
2016,08,24,01,12,10.90
2016,08,24,01,13,10.90
2016,08,24,01,14,11.00
2016,08,24,01,15,11.10
2016,08,24,01,16,11.20
2016,08,24,01,17,11.30
2016,08,24,01,18,11.30
2016,08,24,01,19,11.40
2016,08,24,01,20,11.40
2016,08,24,01,21,11.40
2016,08,24,01,22,11.40
2016,08,24,01,23,11.50
2016,08,24,01,24,11.50
2016,08,24,01,25,11.60
2016,08,24,01,26,11.60
2016,08,24,01,27,11.60
2016,08,24,01,28,11.60
2016,08,24,01,29,11.70
2016,08,24,01,30,11.70
2016,08,24,01,31,11.70
2016,08,24,01,32,11.70
2016,08,24,01,33,11.70
2016,08,24,01,34,11.80
2016,08,24,01,35,11.70
2016,08,24,01,36,11.70
2016,08,24,01,37,11.70
2016,08,24,01,38,11.70
2016,08,24,01,39,11.70
2016,08,24,01,40,11.60
2016,08,24,01,41,11.60
2016,08,24,01,42,11.60
2016,08,24,01,43,11.60
2016,08,24,01,44,11.60
2016,08,24,01,45,11.50
2016,08,24,01,46,11.60
2016,08,24,01,47,11.60
2016,08,24,01,48,11.60
2016,08,24,01,49,11.60
2016,08,24,01,50,11.60
2016,08,24,01,51,11.50
2016,08,24,01,52,11.50
2016,08,24,01,53,11.50
2016,08,24,01,54,11.50
2016,08,24,01,55,11.50
2016,08,24,01,56,11.60
2016,08,24,01,57,11.60
2016,08,24,01,58,11.60
2016,08,24,01,59,11.60
2016,08,24,02,00,11.60
2016,08,24,02,01,11.60
2016,08,24,02,02,11.60
2016,08,24,02,03,11.70
2016,08,24,02,04,11.70
2016,08,24,02,05,11.70
2016,08,24,02,06,11.70
2016,08,24,02,07,11.70
2016,08,24,02,08,11.80
2016,08,24,02,09,11.80
2016,08,24,02,10,11.80
2016,08,24,02,11,11.80
2016,08,24,02,12,11.80
2016,08,24,02,13,11.70
2016,08,24,02,14,11.60
2016,08,24,02,15,11.60
2016,08,24,02,16,11.50
2016,08,24,02,17,11.50
2016,08,24,02,18,11.40
2016,08,24,02,19,11.40
2016,08,24,02,20,11.40
2016,08,24,02,21,11.40
2016,08,24,02,22,11.40
2016,08,24,02,23,11.50
2016,08,24,02,24,11.50
2016,08,24,02,25,11.50
2016,08,24,02,26,11.60
2016,08,24,02,27,11.60
2016,08,24,02,28,11.60
2016,08,24,02,29,11.70
2016,08,24,02,30,11.70
2016,08,24,02,31,11.70
2016,08,24,02,32,11.70
2016,08,24,02,33,11.70
2016,08,24,02,34,11.70
2016,08,24,02,35,11.70
2016,08,24,02,36,11.70
2016,08,24,02,37,11.70
2016,08,24,02,38,11.70
2016,08,24,02,39,11.70
2016,08,24,02,40,11.80
2016,08,24,02,41,11.90
2016,08,24,02,42,12.00
2016,08,24,02,43,12.10
2016,08,24,02,44,12.30
2016,08,24,02,45,12.40
2016,08,24,02,46,12.60
2016,08,24,02,47,12.70
2016,08,24,02,48,12.90
2016,08,24,02,49,13.00
2016,08,24,02,50,13.10
2016,08,24,02,51,13.10
2016,08,24,02,52,13.20
2016,08,24,02,53,13.20
2016,08,24,02,54,13.20
2016,08,24,02,55,13.20
2016,08,24,02,56,13.10
2016,08,24,02,57,13.10
2016,08,24,02,58,13.10
2016,08,24,02,59,13.10
2016,08,24,03,00,13.10
2016,08,24,03,01,13.00
2016,08,24,03,02,13.00
2016,08,24,03,03,12.90
2016,08,24,03,04,12.90
2016,08,24,03,05,12.90
2016,08,24,03,06,12.80
2016,08,24,03,07,12.80
2016,08,24,03,08,12.80
2016,08,24,03,09,12.80
2016,08,24,03,10,12.70
2016,08,24,03,11,12.70
2016,08,24,03,12,12.70
2016,08,24,03,13,12.70
2016,08,24,03,14,12.60
2016,08,24,03,15,12.60
2016,08,24,03,16,12.60
2016,08,24,03,17,12.50
2016,08,24,03,18,12.50
2016,08,24,03,19,12.40
2016,08,24,03,20,12.40
2016,08,24,03,21,12.40
2016,08,24,03,22,12.30
2016,08,24,03,23,12.30
2016,08,24,03,24,12.30
2016,08,24,03,25,12.30
2016,08,24,03,26,12.30
2016,08,24,03,27,12.30
2016,08,24,03,28,12.40
2016,08,24,03,29,12.40
2016,08,24,03,30,12.40
2016,08,24,03,31,12.40
2016,08,24,03,32,12.40
2016,08,24,03,33,12.40
2016,08,24,03,34,12.30
2016,08,24,03,35,12.30
2016,08,24,03,36,12.20
2016,08,24,03,37,12.20
2016,08,24,03,38,12.20
2016,08,24,03,39,12.20
2016,08,24,03,40,12.20
2016,08,24,03,41,12.20
2016,08,24,03,42,12.10
2016,08,24,03,43,12.10
2016,08,24,03,44,12.00
2016,08,24,03,45,12.00
2016,08,24,03,46,11.90
2016,08,24,03,47,11.90
2016,08,24,03,48,11.80
2016,08,24,03,49,11.80
2016,08,24,03,50,11.70
2016,08,24,03,51,11.70
2016,08,24,03,52,11.70
2016,08,24,03,53,11.70
2016,08,24,03,54,11.70
2016,08,24,03,55,11.70
2016,08,24,03,56,11.70
2016,08,24,03,57,11.70
2016,08,24,03,58,11.70
2016,08,24,03,59,11.70
2016,08,24,04,00,11.70
2016,08,24,04,01,11.70
2016,08,24,04,02,11.70
2016,08,24,04,03,11.70
2016,08,24,04,04,11.70
2016,08,24,04,05,11.70
2016,08,24,04,06,11.70
2016,08,24,04,07,11.70
2016,08,24,04,08,11.70
2016,08,24,04,09,11.70
2016,08,24,04,10,11.70
2016,08,24,04,11,11.60
2016,08,24,04,12,11.70
2016,08,24,04,13,11.70
2016,08,24,04,14,11.70
2016,08,24,04,15,11.70
2016,08,24,04,16,11.70
2016,08,24,04,17,11.80
2016,08,24,04,18,11.80
2016,08,24,04,19,11.80
2016,08,24,04,20,11.80
2016,08,24,04,21,11.80
2016,08,24,04,22,11.80
2016,08,24,04,23,11.80
2016,08,24,04,24,11.80
2016,08,24,04,25,11.80
2016,08,24,04,26,11.80
2016,08,24,04,27,11.70
2016,08,24,04,28,11.70
2016,08,24,04,29,11.70
2016,08,24,04,30,11.70
2016,08,24,04,31,11.80
2016,08,24,04,32,11.80
2016,08,24,04,33,11.80
2016,08,24,04,34,11.90
2016,08,24,04,35,12.00
2016,08,24,04,36,12.10
2016,08,24,04,37,12.10
2016,08,24,04,38,12.20
2016,08,24,04,39,12.20
2016,08,24,04,40,12.20
2016,08,24,04,41,12.30
2016,08,24,04,42,12.30
2016,08,24,04,43,12.30
2016,08,24,04,44,12.30
2016,08,24,04,45,12.20
2016,08,24,04,46,12.20
2016,08,24,04,47,12.20
2016,08,24,04,48,12.10
2016,08,24,04,49,12.10
2016,08,24,04,50,12.10
2016,08,24,04,51,12.10
2016,08,24,04,52,12.10
2016,08,24,04,53,12.10
2016,08,24,04,54,12.10
2016,08,24,04,55,12.10
2016,08,24,04,56,12.10
2016,08,24,04,57,12.10
2016,08,24,04,58,12.10
2016,08,24,04,59,12.10
2016,08,24,05,00,12.10
2016,08,24,05,01,12.10
2016,08,24,05,02,12.20
2016,08,24,05,03,12.20
2016,08,24,05,04,12.20
2016,08,24,05,05,12.20
2016,08,24,05,06,12.20
2016,08,24,05,07,12.20
2016,08,24,05,08,12.20
2016,08,24,05,09,12.20
2016,08,24,05,10,12.30
2016,08,24,05,11,12.30
2016,08,24,05,12,12.30
2016,08,24,05,13,12.30
2016,08,24,05,14,12.40
2016,08,24,05,15,12.40
2016,08,24,05,16,12.40
2016,08,24,05,17,12.40
2016,08,24,05,18,12.40
2016,08,24,05,19,12.40
2016,08,24,05,20,12.40
2016,08,24,05,21,12.40
2016,08,24,05,22,12.40
2016,08,24,05,23,12.40
2016,08,24,05,24,12.40
2016,08,24,05,25,12.40
2016,08,24,05,26,12.40
2016,08,24,05,27,12.40
2016,08,24,05,28,12.40
2016,08,24,05,29,12.30
2016,08,24,05,30,12.30
2016,08,24,05,31,12.30
2016,08,24,05,32,12.20
2016,08,24,05,33,12.10
2016,08,24,05,34,12.10
2016,08,24,05,35,12.00
2016,08,24,05,36,12.00
2016,08,24,05,37,11.90
2016,08,24,05,38,11.90
2016,08,24,05,39,11.90
2016,08,24,05,40,11.90
2016,08,24,05,41,11.80
2016,08,24,05,42,11.80
2016,08,24,05,43,11.80
2016,08,24,05,44,11.80
2016,08,24,05,45,11.70
2016,08,24,05,46,11.70
2016,08,24,05,47,11.70
2016,08,24,05,48,11.70
2016,08,24,05,49,11.60
2016,08,24,05,50,11.60
2016,08,24,05,51,11.60
2016,08,24,05,52,11.60
2016,08,24,05,53,11.50
2016,08,24,05,54,11.50
2016,08,24,05,55,11.50
2016,08,24,05,56,11.50
2016,08,24,05,57,11.50
2016,08,24,05,58,11.50
2016,08,24,05,59,11.50
2016,08,24,06,00,11.50
2016,08,24,06,01,11.50
2016,08,24,06,02,11.50
2016,08,24,06,03,11.50
2016,08,24,06,04,11.50
2016,08,24,06,05,11.50
2016,08,24,06,06,11.40
2016,08,24,06,07,11.40
2016,08,24,06,08,11.40
2016,08,24,06,09,11.40
2016,08,24,06,10,11.40
2016,08,24,06,11,11.40
2016,08,24,06,12,11.40
2016,08,24,06,13,11.40
2016,08,24,06,14,11.40
2016,08,24,06,15,11.40
2016,08,24,06,16,11.40
2016,08,24,06,17,11.50
2016,08,24,06,18,11.50
2016,08,24,06,19,11.50
2016,08,24,06,20,11.50
2016,08,24,06,21,11.50
2016,08,24,06,22,11.50
2016,08,24,06,23,11.50
2016,08,24,06,24,11.50
2016,08,24,06,25,11.50
2016,08,24,06,26,11.50
2016,08,24,06,27,11.50
2016,08,24,06,28,11.50
2016,08,24,06,29,11.40
2016,08,24,06,30,11.50
2016,08,24,06,31,11.50
2016,08,24,06,32,11.50
2016,08,24,06,33,11.60
2016,08,24,06,34,11.60
2016,08,24,06,35,11.60
2016,08,24,06,36,11.60
2016,08,24,06,37,11.60
2016,08,24,06,38,11.60
2016,08,24,06,39,11.60
2016,08,24,06,40,11.60
2016,08,24,06,41,11.60
2016,08,24,06,42,11.70
2016,08,24,06,43,11.70
2016,08,24,06,44,11.70
2016,08,24,06,45,11.70
2016,08,24,06,46,11.70
2016,08,24,06,47,11.70
2016,08,24,06,48,11.70
2016,08,24,06,49,11.70
2016,08,24,06,50,11.80
2016,08,24,06,51,11.80
2016,08,24,06,52,11.80
2016,08,24,06,53,11.90
2016,08,24,06,54,11.90
2016,08,24,06,55,11.90
2016,08,24,06,56,12.00
2016,08,24,06,57,12.00
2016,08,24,06,58,12.10
2016,08,24,06,59,12.10
2016,08,24,07,00,12.10
2016,08,24,07,01,12.20
2016,08,24,07,02,12.20
2016,08,24,07,03,12.30
2016,08,24,07,04,12.30
2016,08,24,07,05,12.30
2016,08,24,07,06,12.30
2016,08,24,07,07,12.30
2016,08,24,07,08,12.30
2016,08,24,07,09,12.30
2016,08,24,07,10,12.40
2016,08,24,07,11,12.40
2016,08,24,07,12,12.60
2016,08,24,07,13,12.70
2016,08,24,07,14,12.80
2016,08,24,07,15,13.00
2016,08,24,07,16,13.10
2016,08,24,07,17,13.30
2016,08,24,07,18,13.50
2016,08,24,07,19,13.60
2016,08,24,07,20,13.70
2016,08,24,07,21,13.80
2016,08,24,07,22,13.90
2016,08,24,07,23,14.00
2016,08,24,07,24,14.10
2016,08,24,07,25,14.10
2016,08,24,07,26,14.20
2016,08,24,07,27,14.30
2016,08,24,07,28,14.30
2016,08,24,07,29,14.30
2016,08,24,07,30,14.40
2016,08,24,07,31,14.40
2016,08,24,07,32,14.40
2016,08,24,07,33,14.50
2016,08,24,07,34,14.50
2016,08,24,07,35,14.60
2016,08,24,07,36,14.60
2016,08,24,07,37,14.60
2016,08,24,07,38,14.60
2016,08,24,07,39,14.70
2016,08,24,07,40,14.70
2016,08,24,07,41,14.70
2016,08,24,07,42,14.80
2016,08,24,07,43,14.90
2016,08,24,07,44,14.90
2016,08,24,07,45,14.90
2016,08,24,07,46,15.00
2016,08,24,07,47,15.00
2016,08,24,07,48,15.10
2016,08,24,07,49,15.20
2016,08,24,07,50,15.30
2016,08,24,07,51,15.40
2016,08,24,07,52,15.50
2016,08,24,07,53,15.60
2016,08,24,07,54,15.70
2016,08,24,07,55,15.80
2016,08,24,07,56,15.90
2016,08,24,07,57,16.00
2016,08,24,07,58,16.10
2016,08,24,07,59,16.20
2016,08,24,08,00,16.20
2016,08,24,08,01,16.30
2016,08,24,08,02,16.40
2016,08,24,08,03,16.60
2016,08,24,08,04,16.70
2016,08,24,08,05,16.80
2016,08,24,08,06,16.90
2016,08,24,08,07,17.00
2016,08,24,08,08,17.10
2016,08,24,08,09,17.20
2016,08,24,08,10,17.20
2016,08,24,08,11,17.30
2016,08,24,08,12,17.40
2016,08,24,08,13,17.50
2016,08,24,08,14,17.60
2016,08,24,08,15,17.60
2016,08,24,08,16,17.60
2016,08,24,08,17,17.60
2016,08,24,08,18,17.60
2016,08,24,08,19,17.60
2016,08,24,08,20,17.70
2016,08,24,08,21,17.70
2016,08,24,08,22,17.70
2016,08,24,08,23,17.70
2016,08,24,08,24,17.80
2016,08,24,08,25,17.90
2016,08,24,08,26,17.90
2016,08,24,08,27,18.00
2016,08,24,08,28,18.10
2016,08,24,08,29,18.10
2016,08,24,08,30,18.20
2016,08,24,08,31,18.30
2016,08,24,08,32,18.30
2016,08,24,08,33,18.40
2016,08,24,08,34,18.50
2016,08,24,08,35,18.60
2016,08,24,08,36,18.70
2016,08,24,08,37,18.80
2016,08,24,08,38,19.00
2016,08,24,08,39,19.00
2016,08,24,08,40,19.10
2016,08,24,08,41,19.20
2016,08,24,08,42,19.30
2016,08,24,08,43,19.30
2016,08,24,08,44,19.40
2016,08,24,08,45,19.50
2016,08,24,08,46,19.60
2016,08,24,08,47,19.70
2016,08,24,08,48,19.70
2016,08,24,08,49,19.80
2016,08,24,08,50,19.80
2016,08,24,08,51,19.90
2016,08,24,08,52,20.00
2016,08,24,08,53,20.10
2016,08,24,08,54,20.10
2016,08,24,08,55,20.10
2016,08,24,08,56,20.20
2016,08,24,08,57,20.20
2016,08,24,08,58,20.30
2016,08,24,08,59,20.40
2016,08,24,09,00,20.40
2016,08,24,09,01,20.50
2016,08,24,09,02,20.60
2016,08,24,09,03,20.70
2016,08,24,09,04,20.70
2016,08,24,09,05,20.70
2016,08,24,09,06,20.70
2016,08,24,09,07,20.70
2016,08,24,09,08,20.80
2016,08,24,09,09,20.80
2016,08,24,09,10,20.70
2016,08,24,09,11,20.70
2016,08,24,09,12,20.70
2016,08,24,09,13,20.70
2016,08,24,09,14,20.70
2016,08,24,09,15,20.80
2016,08,24,09,16,20.80
2016,08,24,09,17,20.90
2016,08,24,09,18,20.90
2016,08,24,09,19,21.00
2016,08,24,09,20,21.00
2016,08,24,09,21,21.10
2016,08,24,09,22,21.10
2016,08,24,09,23,21.20
2016,08,24,09,24,21.20
2016,08,24,09,25,21.30
2016,08,24,09,26,21.30
2016,08,24,09,27,21.40
2016,08,24,09,28,21.40
2016,08,24,09,29,21.50
2016,08,24,09,30,21.60
2016,08,24,09,31,21.70
2016,08,24,09,32,21.80
2016,08,24,09,33,21.90
2016,08,24,09,34,22.00
2016,08,24,09,35,22.00
2016,08,24,09,36,22.00
2016,08,24,09,37,21.90
2016,08,24,09,38,21.90
2016,08,24,09,39,21.90
2016,08,24,09,40,21.90
2016,08,24,09,41,21.90
2016,08,24,09,42,21.80
2016,08,24,09,43,21.80
2016,08,24,09,44,21.70
2016,08,24,09,45,21.70
2016,08,24,09,46,21.60
2016,08,24,09,47,21.70
2016,08,24,09,48,21.60
2016,08,24,09,49,21.60
2016,08,24,09,50,21.60
2016,08,24,09,51,21.70
2016,08,24,09,52,21.80
2016,08,24,09,53,21.90
2016,08,24,09,54,22.00
2016,08,24,09,55,22.10
2016,08,24,09,56,22.10
2016,08,24,09,57,22.10
2016,08,24,09,58,22.20
2016,08,24,09,59,22.20
2016,08,24,10,00,22.20
2016,08,24,10,01,22.20
2016,08,24,10,02,22.20
2016,08,24,10,03,22.20
2016,08,24,10,04,22.30
2016,08,24,10,05,22.30
2016,08,24,10,06,22.50
2016,08,24,10,07,22.60
2016,08,24,10,08,22.60
2016,08,24,10,09,22.70
2016,08,24,10,10,22.80
2016,08,24,10,11,22.80
2016,08,24,10,12,22.80
2016,08,24,10,13,22.80
2016,08,24,10,14,22.80
2016,08,24,10,15,22.90
2016,08,24,10,16,22.90
2016,08,24,10,17,22.90
2016,08,24,10,18,22.90
2016,08,24,10,19,22.90
2016,08,24,10,20,22.90
2016,08,24,10,21,23.00
2016,08,24,10,22,23.00
2016,08,24,10,23,23.10
2016,08,24,10,24,23.10
2016,08,24,10,25,23.20
2016,08,24,10,26,23.20
2016,08,24,10,27,23.20
2016,08,24,10,28,23.20
2016,08,24,10,29,23.20
2016,08,24,10,30,23.10
2016,08,24,10,31,23.00
2016,08,24,10,32,23.00
2016,08,24,10,33,23.00
2016,08,24,10,34,23.00
2016,08,24,10,35,23.10
2016,08,24,10,36,23.10
2016,08,24,10,37,23.10
2016,08,24,10,38,23.10
2016,08,24,10,39,23.10
2016,08,24,10,40,23.20
2016,08,24,10,41,23.20
2016,08,24,10,42,23.30
2016,08,24,10,43,23.30
2016,08,24,10,44,23.40
2016,08,24,10,45,23.50
2016,08,24,10,46,23.50
2016,08,24,10,47,23.50
2016,08,24,10,48,23.60
2016,08,24,10,49,23.60
2016,08,24,10,50,23.70
2016,08,24,10,51,23.70
2016,08,24,10,52,23.70
2016,08,24,10,53,23.70
2016,08,24,10,54,23.80
2016,08,24,10,55,23.90
2016,08,24,10,56,23.90
2016,08,24,10,57,24.00
2016,08,24,10,58,24.10
2016,08,24,10,59,24.20
2016,08,24,11,00,24.30
2016,08,24,11,01,24.40
2016,08,24,11,02,24.40
2016,08,24,11,03,24.40
2016,08,24,11,04,24.40
2016,08,24,11,05,24.30
2016,08,24,11,06,24.20
2016,08,24,11,07,24.20
2016,08,24,11,08,24.20
2016,08,24,11,09,24.30
2016,08,24,11,10,24.40
2016,08,24,11,11,24.50
2016,08,24,11,12,24.60
2016,08,24,11,13,24.70
2016,08,24,11,14,24.80
2016,08,24,11,15,24.90
2016,08,24,11,16,25.00
2016,08,24,11,17,25.10
2016,08,24,11,18,25.20
2016,08,24,11,19,25.10
2016,08,24,11,20,25.00
2016,08,24,11,21,24.80
2016,08,24,11,22,24.60
2016,08,24,11,23,24.60
2016,08,24,11,24,24.70
2016,08,24,11,25,24.70
2016,08,24,11,26,24.80
2016,08,24,11,27,24.80
2016,08,24,11,28,24.80
2016,08,24,11,29,24.70
2016,08,24,11,30,24.70
2016,08,24,11,31,24.70
2016,08,24,11,32,24.90
2016,08,24,11,33,25.00
2016,08,24,11,34,25.10
2016,08,24,11,35,25.20
2016,08,24,11,36,25.20
2016,08,24,11,37,25.20
2016,08,24,11,38,25.30
2016,08,24,11,39,25.30
2016,08,24,11,40,25.40
2016,08,24,11,41,25.40
2016,08,24,11,42,25.30
2016,08,24,11,43,25.30
2016,08,24,11,44,25.30
2016,08,24,11,45,25.30
2016,08,24,11,46,25.30
2016,08,24,11,47,25.40
2016,08,24,11,48,25.40
2016,08,24,11,49,25.40
2016,08,24,11,50,25.50
2016,08,24,11,51,25.60
2016,08,24,11,52,25.70
2016,08,24,11,53,25.80
2016,08,24,11,54,25.90
2016,08,24,11,55,26.00
2016,08,24,11,56,26.00
2016,08,24,11,57,25.80
2016,08,24,11,58,25.70
2016,08,24,11,59,25.40
2016,08,24,12,00,25.30
2016,08,24,12,01,25.10
2016,08,24,12,02,24.90
2016,08,24,12,03,24.70
2016,08,24,12,04,24.50
2016,08,24,12,05,24.40
2016,08,24,12,06,24.30
2016,08,24,12,07,24.40
2016,08,24,12,08,24.50
2016,08,24,12,09,24.70
2016,08,24,12,10,24.70
2016,08,24,12,11,24.70
2016,08,24,12,12,24.80
2016,08,24,12,13,24.90
2016,08,24,12,14,25.00
2016,08,24,12,15,25.10
2016,08,24,12,16,25.30
2016,08,24,12,17,25.40
2016,08,24,12,18,25.50
2016,08,24,12,19,25.60
2016,08,24,12,20,25.80
2016,08,24,12,21,25.90
2016,08,24,12,22,26.00
2016,08,24,12,23,26.00
2016,08,24,12,24,26.10
2016,08,24,12,25,26.20
2016,08,24,12,26,26.30
2016,08,24,12,27,26.40
2016,08,24,12,28,26.50
2016,08,24,12,29,26.50
2016,08,24,12,30,26.60
2016,08,24,12,31,26.60
2016,08,24,12,32,26.60
2016,08,24,12,33,26.60
2016,08,24,12,34,26.70
2016,08,24,12,35,26.70
2016,08,24,12,36,26.80
2016,08,24,12,37,26.80
2016,08,24,12,38,26.80
2016,08,24,12,39,26.80
2016,08,24,12,40,26.80
2016,08,24,12,41,26.80
2016,08,24,12,42,26.80
2016,08,24,12,43,26.70
2016,08,24,12,44,26.60
2016,08,24,12,45,26.60
2016,08,24,12,46,26.60
2016,08,24,12,47,26.60
2016,08,24,12,48,26.60
2016,08,24,12,49,26.70
2016,08,24,12,50,26.80
2016,08,24,12,51,26.80
2016,08,24,12,52,26.80
2016,08,24,12,53,26.80
2016,08,24,12,54,26.80
2016,08,24,12,55,26.80
2016,08,24,12,56,26.80
2016,08,24,12,57,26.70
2016,08,24,12,58,26.60
2016,08,24,12,59,26.60
2016,08,24,13,00,26.60
2016,08,24,13,01,26.60
2016,08,24,13,02,26.60
2016,08,24,13,03,26.50
2016,08,24,13,04,26.40
2016,08,24,13,05,26.40
2016,08,24,13,06,26.30
2016,08,24,13,07,26.30
2016,08,24,13,08,26.30
2016,08,24,13,09,26.40
2016,08,24,13,10,26.30
2016,08,24,13,11,26.30
2016,08,24,13,12,26.30
2016,08,24,13,13,26.30
2016,08,24,13,14,26.20
2016,08,24,13,15,26.20
2016,08,24,13,16,26.20
2016,08,24,13,17,26.20
2016,08,24,13,18,26.30
2016,08,24,13,19,26.40
2016,08,24,13,20,26.50
2016,08,24,13,21,26.60
2016,08,24,13,22,26.70
2016,08,24,13,23,26.70
2016,08,24,13,24,26.70
2016,08,24,13,25,26.70
2016,08,24,13,26,26.60
2016,08,24,13,27,26.50
2016,08,24,13,28,26.50
2016,08,24,13,29,26.50
2016,08,24,13,30,26.50
2016,08,24,13,31,26.40
2016,08,24,13,32,26.50
2016,08,24,13,33,26.50
2016,08,24,13,34,26.60
2016,08,24,13,35,26.60
2016,08,24,13,36,26.60
2016,08,24,13,37,26.60
2016,08,24,13,38,26.60
2016,08,24,13,39,26.60
2016,08,24,13,40,26.60
2016,08,24,13,41,26.50
2016,08,24,13,42,26.50
2016,08,24,13,43,26.60
2016,08,24,13,44,26.60
2016,08,24,13,45,26.60
2016,08,24,13,46,26.60
2016,08,24,13,47,26.60
2016,08,24,13,48,26.60
2016,08,24,13,49,26.60
2016,08,24,13,50,26.70
2016,08,24,13,51,26.80
2016,08,24,13,52,26.80
2016,08,24,13,53,26.90
2016,08,24,13,54,26.80
2016,08,24,13,55,26.80
2016,08,24,13,56,26.70
2016,08,24,13,57,26.60
2016,08,24,13,58,26.50
2016,08,24,13,59,26.40
2016,08,24,14,00,26.30
2016,08,24,14,01,26.20
2016,08,24,14,02,26.20
2016,08,24,14,03,26.20
2016,08,24,14,04,26.30
2016,08,24,14,05,26.30
2016,08,24,14,06,26.40
2016,08,24,14,07,26.40
2016,08,24,14,08,26.50
2016,08,24,14,09,26.60
2016,08,24,14,10,26.70
2016,08,24,14,11,26.80
2016,08,24,14,12,26.90
2016,08,24,14,13,26.90
2016,08,24,14,14,27.00
2016,08,24,14,15,26.90
2016,08,24,14,16,26.90
2016,08,24,14,17,26.80
2016,08,24,14,18,26.80
2016,08,24,14,19,26.80
2016,08,24,14,20,26.80
2016,08,24,14,21,26.80
2016,08,24,14,22,26.90
2016,08,24,14,23,26.90
2016,08,24,14,24,26.90
2016,08,24,14,25,26.90
2016,08,24,14,26,27.00
2016,08,24,14,27,27.00
2016,08,24,14,28,27.10
2016,08,24,14,29,27.20
2016,08,24,14,30,27.20
2016,08,24,14,31,27.20
2016,08,24,14,32,27.30
2016,08,24,14,33,27.40
2016,08,24,14,34,27.50
2016,08,24,14,35,27.70
2016,08,24,14,36,27.70
2016,08,24,14,37,27.80
2016,08,24,14,38,27.80
2016,08,24,14,39,27.70
2016,08,24,14,40,27.60
2016,08,24,14,41,27.40
2016,08,24,14,42,27.20
2016,08,24,14,43,27.10
2016,08,24,14,44,27.00
2016,08,24,14,45,26.90
2016,08,24,14,46,26.80
2016,08,24,14,47,26.80
2016,08,24,14,48,26.90
2016,08,24,14,49,27.00
2016,08,24,14,50,27.10
2016,08,24,14,51,27.20
2016,08,24,14,52,27.30
2016,08,24,14,53,27.30
2016,08,24,14,54,27.30
2016,08,24,14,55,27.40
2016,08,24,14,56,27.50
2016,08,24,14,57,27.60
2016,08,24,14,58,27.60
2016,08,24,14,59,27.50
2016,08,24,15,00,27.40
2016,08,24,15,01,27.30
2016,08,24,15,02,27.30
2016,08,24,15,03,27.30
2016,08,24,15,04,27.30
2016,08,24,15,05,27.40
2016,08,24,15,06,27.40
2016,08,24,15,07,27.30
2016,08,24,15,08,27.40
2016,08,24,15,09,27.50
2016,08,24,15,10,27.60
2016,08,24,15,11,27.60
2016,08,24,15,12,27.70
2016,08,24,15,13,27.80
2016,08,24,15,14,27.90
2016,08,24,15,15,27.90
2016,08,24,15,16,27.90
2016,08,24,15,17,28.00
2016,08,24,15,18,28.00
2016,08,24,15,19,28.10
2016,08,24,15,20,28.20
2016,08,24,15,21,28.30
2016,08,24,15,22,28.30
2016,08,24,15,23,28.30
2016,08,24,15,24,28.30
2016,08,24,15,25,28.30
2016,08,24,15,26,28.40
2016,08,24,15,27,28.40
2016,08,24,15,28,28.50
2016,08,24,15,29,28.60
2016,08,24,15,30,28.70
2016,08,24,15,31,28.70
2016,08,24,15,32,28.80
2016,08,24,15,33,28.80
2016,08,24,15,34,28.70
2016,08,24,15,35,28.60
2016,08,24,15,36,28.40
2016,08,24,15,37,28.40
2016,08,24,15,38,28.40
2016,08,24,15,39,28.50
2016,08,24,15,40,28.50
2016,08,24,15,41,28.40
2016,08,24,15,42,28.40
2016,08,24,15,43,28.50
2016,08,24,15,44,28.60
2016,08,24,15,45,28.70
2016,08,24,15,46,28.70
2016,08,24,15,47,28.80
2016,08,24,15,48,28.90
2016,08,24,15,49,29.00
2016,08,24,15,50,29.10
2016,08,24,15,51,29.10
2016,08,24,15,52,29.20
2016,08,24,15,53,29.30
2016,08,24,15,54,29.30
2016,08,24,15,55,29.40
2016,08,24,15,56,29.50
2016,08,24,15,57,29.50
2016,08,24,15,58,29.50
2016,08,24,15,59,29.40
2016,08,24,16,00,29.30
2016,08,24,16,01,29.30
2016,08,24,16,02,29.40
2016,08,24,16,03,29.30
2016,08,24,16,04,29.20
2016,08,24,16,05,29.20
2016,08,24,16,06,29.10
2016,08,24,16,07,29.00
2016,08,24,16,08,28.90
2016,08,24,16,09,28.90
2016,08,24,16,10,28.90
2016,08,24,16,11,29.00
2016,08,24,16,12,29.00
2016,08,24,16,13,29.00
2016,08,24,16,14,29.00
2016,08,24,16,15,29.00
2016,08,24,16,16,29.00
2016,08,24,16,17,29.10
2016,08,24,16,18,29.30
2016,08,24,16,19,29.40
2016,08,24,16,20,29.60
2016,08,24,16,21,29.70
2016,08,24,16,22,29.90
2016,08,24,16,23,30.00
2016,08,24,16,24,30.10
2016,08,24,16,25,30.20
2016,08,24,16,26,30.20
2016,08,24,16,27,30.30
2016,08,24,16,28,30.40
2016,08,24,16,29,30.40
2016,08,24,16,30,30.50
2016,08,24,16,31,30.50
2016,08,24,16,32,30.50
2016,08,24,16,33,30.40
2016,08,24,16,34,30.00
2016,08,24,16,35,29.70
2016,08,24,16,36,29.30
2016,08,24,16,37,29.20
2016,08,24,16,38,29.20
2016,08,24,16,39,29.20
2016,08,24,16,40,29.20
2016,08,24,16,41,29.30
2016,08,24,16,42,29.40
2016,08,24,16,43,29.50
2016,08,24,16,44,29.60
2016,08,24,16,45,29.60
2016,08,24,16,46,29.60
2016,08,24,16,47,29.60
2016,08,24,16,48,29.60
2016,08,24,16,49,29.60
2016,08,24,16,50,29.60
2016,08,24,16,51,29.70
2016,08,24,16,52,29.70
2016,08,24,16,53,29.70
2016,08,24,16,54,29.70
2016,08,24,16,55,29.60
2016,08,24,16,56,29.60
2016,08,24,16,57,29.50
2016,08,24,16,58,29.40
2016,08,24,16,59,29.40
2016,08,24,17,00,29.30
2016,08,24,17,01,29.30
2016,08,24,17,02,29.30
2016,08,24,17,03,29.20
2016,08,24,17,04,29.10
2016,08,24,17,05,29.00
2016,08,24,17,06,28.90
2016,08,24,17,07,28.90
2016,08,24,17,08,28.80
2016,08,24,17,09,28.80
2016,08,24,17,10,28.80
2016,08,24,17,11,28.70
2016,08,24,17,12,28.60
2016,08,24,17,13,28.50
2016,08,24,17,14,28.40
2016,08,24,17,15,28.40
2016,08,24,17,16,28.30
2016,08,24,17,17,28.10
2016,08,24,17,18,28.00
2016,08,24,17,19,27.80